Regional Weather Roundup
Issued by NWS Bismarck, ND

Home | Current Version | Previous Version | Text Only | Print | Product List | Glossary On
Versions: 1 2 3 4 5 6 7 8 9 10 11 12 13 14 15 16 17 18 19 20 21 22 23 24 25 26 27 28 29 30 31 32 33 34 35 36 37 38 39 40 41 42 43 44 45 46 47 48 49 50
000
ASUS43 KBIS 230920
RWRBIS

NWR BROADCAST TEXT
NATIONAL WEATHER SERVICE BISMARCK ND
400 AM CDT SAT MAY 23 2015

NOTE: "FAIR" INDICATES FEW OR NO CLOUDS BELOW 12,000 FEET WITH NO
SIGNIFICANT WEATHER AND/OR OBSTRUCTIONS TO VISIBILITY.


CITY           SKY/WX    TMP DP  RH WIND       PRES   REMARKS
WILLISTON      CLEAR     50  38  63 CALM      30.10S
MINOT          CLOUDY    57  39  51 SW9       30.10S
MINOT AFB      CLOUDY    58  41  53 W9        30.09S
BISMARCK       PTCLDY    45  40  82 SE6       30.16R
DICKINSON      PTCLDY    40  35  83 E9        30.08S
GARRISON         N/A     46  40  79 NE3       30.12S
HETTINGER ARPT PTCLDY    42  38  85 E8        30.10S
JAMESTOWN      MOCLDY    53  43  68 SW9       30.15R
BEACH          PTSUNNY   41  39  93 E8        30.08R
CARRINGTON     FAIR      50  45  81 SW9       30.15R
CROSBY         FAIR      50  41  71 SW10      30.12R
HARVEY         FAIR      48  43  81 CALM      30.13S
HAZEN          FAIR      39  36  87 CALM      30.14R
LINTON         FAIR      43  43 100 E5        30.17R
MANDAN         PTSUNNY   46  41  81 SE6       30.16S
OAKES            N/A     48  48 100 SW8       30.19R
STANLEY        PTSUNNY   45  45 100 CALM      30.13S
TIOGA          FAIR      45  37  76 E3        30.15S
WATFORD CITY   FAIR      45  34  65 CALM      30.09S
$$

CITY           SKY/WX    TMP DP  RH WIND       PRES   REMARKS
GRAND FORKS    CLEAR     46  40  79 S7        30.13S
GRAND FORKS AF CLEAR     51  40  65 SE3       30.13S
DEVILS LAKE    CLEAR     54  37  54 CALM      30.12S
FARGO          CLEAR     53  44  71 S9        30.15S
CANDO          FAIR      46  37  71 SW5       30.13S
CAVALIER       FAIR      54  39  58 SW5       30.12S
GRAFTON        FAIR      48  45  87 SE5       30.13S
LANGDON        FAIR      45  36  70 S9        30.13S
ROLLA          FAIR      50  34  53 SW7       30.14S
WALHALLA       FAIR      57  34  41 SW7       30.11S
$$

CITY           SKY/WX    TMP DP  RH WIND       PRES   REMARKS
ABERDEEN       PTCLDY    42  39  89 SE5       30.19S
MOBRIDGE       PTCLDY    47  43  86 E10       30.12S
BUFFALO          N/A     43  40  89 E9        29.99F
RAPID CITY     CLOUDY    45  43  93 SE6       30.06R
GLASGOW        MOCLDY    56  42  59 E12       30.03R
SIDNEY         MOCLDY    48  37  66 CALM      30.08S
WOLF POINT     MOCLDY    53  42  66 E6        30.06R
GLENDIVE       PTCLDY    45  37  76 E7        30.07R
MILES CITY     PTCLDY    52  39  61 SE8       29.99S
BAKER          PTCLDY    41  37  86 SE10      30.05S
$$

CITY           SKY/WX    TMP DP  RH WIND       PRES   REMARKS
BILLINGS       MOCLDY    50  45  83 N6        29.95S
GREAT FALLS    PTCLDY    52  43  71 E8        29.99R
REGINA         PTCLDY    48  37  66 E9        30.09R
ESTEVAN        MOCLDY    54  41  62 S7        30.11R
$$



USA.gov is the U.S. government's official web portal to all federal, state and local government web resources and services.